| time (UTC) | temp F | wind direction | speed MPH | gust MPH | rain 1hr in | rain 24hr in | rain mn in | humidity % | barometer mb |
| 20260903190003 | 86 | 168 | 7.0 | 15.0 | 0.00 | 0.00 | 0.00 | 73 | 1009.4 |
| 20260903185403 | 86 | 164 | 8.0 | 18.0 | 0.00 | 0.00 | 0.00 | 73 | 1009.5 |
| 20260903184503 | 86 | 157 | 8.0 | 18.0 | 0.00 | 0.00 | 0.00 | 73 | 1009.6 |
| 20260903183603 | 86 | 154 | 8.0 | 17.0 | 0.00 | 0.00 | 0.00 | 74 | 1009.7 |
| 20260903182725 | 85 | 161 | 7.0 | 19.0 | 0.00 | 0.00 | 0.00 | 75 | 1009.9 |
| 20260903181803 | 85 | 164 | 7.0 | 16.0 | 0.00 | 0.00 | 0.00 | 76 | 1010.1 |
| 20260903180904 | 84 | 157 | 7.0 | 14.0 | 0.00 | 0.00 | 0.00 | 76 | 1010.1 |
| 20260903180024 | 84 | 160 | 7.0 | 15.0 | 0.00 | 0.00 | 0.00 | 76 | 1010.2 |
| 20260903175403 | 84 | 155 | 6.0 | 16.0 | 0.00 | 0.00 | 0.00 | 77 | 1010.3 |
| 20260903174504 | 84 | 162 | 7.0 | 15.0 | 0.00 | 0.00 | 0.00 | 76 | 1010.5 |
| 20260903173603 | 84 | 159 | 7.0 | 15.0 | 0.00 | 0.00 | 0.00 | 76 | 1010.5 |
| 20260903172703 | 84 | 155 | 7.0 | 15.0 | 0.00 | 0.00 | 0.00 | 75 | 1010.6 |
| 20260903171804 | 85 | 156 | 7.0 | 18.0 | 0.00 | 0.00 | 0.00 | 75 | 1010.7 |
| 20260903170924 | 85 | 148 | 7.0 | 16.0 | 0.00 | 0.00 | 0.00 | 75 | 1010.7 |
| 20260903170025 | 85 | 157 | 6.0 | 15.0 | 0.00 | 0.00 | 0.00 | 75 | 1010.6 |
| 20260903165404 | 85 | 160 | 7.0 | 15.0 | 0.00 | 0.00 | 0.00 | 75 | 1010.6 |
| 20260903164525 | 85 | 163 | 6.0 | 15.0 | 0.00 | 0.00 | 0.00 | 75 | 1010.6 |
| 20260903163604 | 85 | 168 | 6.0 | 14.0 | 0.00 | 0.00 | 0.00 | 74 | 1010.5 |
| 20260903162704 | 85 | 163 | 7.0 | 15.0 | 0.00 | 0.00 | 0.00 | 74 | 1010.5 |
| 20260903161825 | 85 | 166 | 6.0 | 16.0 | 0.00 | 0.00 | 0.00 | 74 | 1010.5 |
| 20260903160903 | 85 | 165 | 7.0 | 12.0 | 0.00 | 0.00 | 0.00 | 75 | 1010.5 |
| 20260903160003 | 84 | 166 | 6.0 | 14.0 | 0.00 | 0.00 | 0.00 | 76 | 1010.4 |
| 20260903155424 | 84 | 162 | 6.0 | 13.0 | 0.00 | 0.00 | 0.00 | 77 | 1010.3 |
| 20260903154503 | 84 | 163 | 6.0 | 12.0 | 0.00 | 0.00 | 0.00 | 77 | 1010.4 |
| 20260903153624 | 84 | 163 | 6.0 | 14.0 | 0.00 | 0.00 | 0.00 | 77 | 1010.4 |
| 20260903152703 | 84 | 160 | 6.0 | 14.0 | 0.00 | 0.00 | 0.00 | 78 | 1010.4 |
| 20260903151803 | 84 | 171 | 6.0 | 13.0 | 0.00 | 0.00 | 0.00 | 78 | 1010.3 |
| 20260903150903 | 84 | 167 | 6.0 | 15.0 | 0.00 | 0.00 | 0.00 | 77 | 1010.3 |
| 20260903150003 | 85 | 170 | 6.0 | 16.0 | 0.00 | 0.00 | 0.00 | 77 | 1010.3 |
| 20260903145404 | 84 | 170 | 5.0 | 16.0 | 0.00 | 0.00 | 0.00 | 78 | 1010.2 |
| 20260903144503 | 84 | 164 | 5.0 | 12.0 | 0.00 | 0.00 | 0.00 | 79 | 1010.2 |
| 20260903143604 | 83 | 169 | 6.0 | 14.0 | 0.00 | 0.00 | 0.00 | 81 | 1010.2 |
| 20260903142703 | 82 | 157 | 5.0 | 12.0 | 0.00 | 0.00 | 0.00 | 81 | 1010.1 |
| 20260903141803 | 82 | 155 | 5.0 | 12.0 | 0.00 | 0.00 | 0.00 | 82 | 1010.2 |
| 20260903140903 | 81 | 160 | 4.0 | 11.0 | 0.00 | 0.00 | 0.00 | 83 | 1010.2 |
| 20260903140003 | 80 | 152 | 4.0 | 9.0 | 0.00 | 0.00 | 0.00 | 84 | 1010.2 |
| 20260903135403 | 80 | 151 | 4.0 | 9.0 | 0.00 | 0.00 | 0.00 | 85 | 1010.3 |
| 20260903134503 | 79 | 153 | 3.0 | 7.0 | 0.00 | 0.00 | 0.00 | 86 | 1010.1 |
| 20260903133604 | 78 | 154 | 2.0 | 7.0 | 0.00 | 0.00 | 0.00 | 87 | 1010.1 |
| 20260903132703 | 77 | 142 | 2.0 | 4.0 | 0.00 | 0.00 | 0.00 | 87 | 1010.1 |
| 20260903131824 | 77 | 142 | 1.0 | 4.0 | 0.00 | 0.00 | 0.00 | 88 | 1010.2 |
| 20260903130904 | 76 | 148 | 2.0 | 4.0 | 0.00 | 0.00 | 0.00 | 88 | 1010.2 |
| 20260903130003 | 76 | 145 | 2.0 | 6.0 | 0.00 | 0.00 | 0.00 | 88 | 1010.1 |
| 20260903125404 | 76 | 144 | 2.0 | 6.0 | 0.00 | 0.00 | 0.00 | 89 | 1010.1 |
| 20260903124503 | 76 | 150 | 1.0 | 3.0 | 0.00 | 0.00 | 0.00 | 88 | 1010.0 |
| 20260903123604 | 75 | 154 | 0.0 | 2.0 | 0.00 | 0.00 | 0.00 | 88 | 1010.0 |
| 20260903122703 | 75 | 0 | 0.0 | 0.0 | 0.00 | 0.00 | 0.00 | 88 | 1009.9 |
| 20260903121804 | 75 | 162 | 0.0 | 2.0 | 0.00 | 0.00 | 0.00 | 88 | 1009.9 |
| 20260903120903 | 75 | 138 | 0.0 | 2.0 | 0.00 | 0.00 | 0.00 | 88 | 1009.8 |
| 20260903120003 | 75 | 0 | 0.0 | 0.0 | 0.00 | 0.00 | 0.00 | 88 | 1009.8 |
| 20260903115404 | 75 | 67 | 0.0 | 1.0 | 0.00 | 0.00 | 0.00 | 88 | 1009.9 |
| 20260903114503 | 75 | 84 | 0.0 | 1.0 | 0.00 | 0.00 | 0.00 | 87 | 1009.8 |
| 20260903113603 | 75 | 151 | 0.0 | 2.0 | 0.00 | 0.00 | 0.00 | 87 | 1009.8 |
| 20260903112703 | 76 | 151 | 1.0 | 2.0 | 0.00 | 0.00 | 0.00 | 87 | 1009.6 |
| 20260903111803 | 76 | 154 | 1.0 | 4.0 | 0.00 | 0.00 | 0.00 | 87 | 1009.7 |
| 20260903110904 | 76 | 156 | 1.0 | 4.0 | 0.00 | 0.00 | 0.00 | 87 | 1009.7 |
| 20260903110003 | 76 | 128 | 0.0 | 3.0 | 0.00 | 0.00 | 0.00 | 87 | 1009.6 |
| 20260903105403 | 76 | 149 | 0.0 | 4.0 | 0.00 | 0.00 | 0.00 | 87 | 1009.6 |
| 20260903104504 | 76 | 151 | 0.0 | 4.0 | 0.00 | 0.00 | 0.00 | 86 | 1009.5 |
| 20260903103603 | 76 | 142 | 1.0 | 4.0 | 0.00 | 0.00 | 0.00 | 86 | 1009.6 |
| 20260903102724 | 76 | 135 | 0.0 | 3.0 | 0.00 | 0.00 | 0.00 | 86 | 1009.6 |
| 20260903101824 | 76 | 120 | 1.0 | 4.0 | 0.00 | 0.00 | 0.00 | 86 | 1009.6 |
| 20260903100903 | 76 | 140 | 0.0 | 2.0 | 0.00 | 0.00 | 0.00 | 86 | 1009.6 |
| 20260903100024 | 76 | 0 | 0.0 | 0.0 | 0.00 | 0.00 | 0.00 | 85 | 1009.5 |
| 20260903095424 | 76 | 0 | 0.0 | 0.0 | 0.00 | 0.00 | 0.00 | 84 | 1009.6 |
| 20260903094503 | 76 | 0 | 0.0 | 0.0 | 0.00 | 0.00 | 0.00 | 84 | 1009.6 |
| 20260903093624 | 76 | 0 | 0.0 | 0.0 | 0.00 | 0.00 | 0.00 | 84 | 1009.6 |
| 20260903092703 | 77 | 161 | 0.0 | 2.0 | 0.00 | 0.00 | 0.00 | 84 | 1009.7 |
| 20260903091803 | 77 | 161 | 0.0 | 2.0 | 0.00 | 0.00 | 0.00 | 84 | 1009.6 |
| 20260903090903 | 77 | 166 | 0.0 | 2.0 | 0.00 | 0.00 | 0.00 | 83 | 1009.6 |
| 20260903090003 | 77 | 0 | 0.0 | 0.0 | 0.00 | 0.00 | 0.00 | 83 | 1009.5 |
| 20260903085403 | 77 | 0 | 0.0 | 0.0 | 0.00 | 0.00 | 0.00 | 83 | 1009.4 |
| 20260903084503 | 77 | 0 | 0.0 | 0.0 | 0.00 | 0.00 | 0.00 | 83 | 1009.4 |
| 20260903083603 | 77 | 0 | 0.0 | 0.0 | 0.00 | 0.00 | 0.00 | 83 | 1009.3 |
| 20260903082703 | 77 | 0 | 0.0 | 0.0 | 0.00 | 0.00 | 0.00 | 83 | 1009.3 |
| 20260903081803 | 77 | 0 | 0.0 | 0.0 | 0.00 | 0.00 | 0.00 | 82 | 1009.4 |
| 20260903080904 | 77 | 0 | 0.0 | 0.0 | 0.00 | 0.00 | 0.00 | 81 | 1009.6 |
| 20260903080003 | 77 | 0 | 0.0 | 0.0 | 0.00 | 0.00 | 0.00 | 81 | 1009.6 |
| 20260903075403 | 77 | 0 | 0.0 | 0.0 | 0.00 | 0.00 | 0.00 | 80 | 1009.6 |
| 20260903074503 | 77 | 0 | 0.0 | 0.0 | 0.00 | 0.00 | 0.00 | 80 | 1009.5 |
| 20260903073604 | 78 | 0 | 0.0 | 0.0 | 0.00 | 0.00 | 0.00 | 79 | 1009.6 |
| 20260903072703 | 78 | 0 | 0.0 | 0.0 | 0.00 | 0.00 | 0.00 | 79 | 1009.6 |
| 20260903071803 | 78 | 0 | 0.0 | 0.0 | 0.00 | 0.00 | 0.00 | 80 | 1009.7 |
| 20260903070903 | 78 | 0 | 0.0 | 0.0 | 0.00 | 0.00 | 0.00 | 79 | 1009.7 |
| 20260903070004 | 78 | 189 | 0.0 | 3.0 | 0.00 | 0.00 | 0.00 | 79 | 1009.8 |
| 20260903065424 | 78 | 188 | 0.0 | 2.0 | 0.00 | 0.00 | 0.00 | 79 | 1009.8 |
| 20260903064503 | 78 | 178 | 0.0 | 2.0 | 0.00 | 0.00 | 0.00 | 79 | 1009.7 |
| 20260903063624 | 78 | 176 | 0.0 | 4.0 | 0.00 | 0.00 | 0.00 | 78 | 1009.8 |
| 20260903062703 | 79 | 165 | 1.0 | 5.0 | 0.00 | 0.00 | 0.00 | 78 | 1009.9 |
| 20260903061803 | 79 | 149 | 1.0 | 4.0 | 0.00 | 0.00 | 0.00 | 77 | 1010.0 |
| 20260903060924 | 79 | 146 | 2.0 | 6.0 | 0.00 | 0.00 | 0.00 | 77 | 1010.0 |
| 20260903060003 | 79 | 153 | 2.0 | 7.0 | 0.00 | 0.00 | 0.00 | 76 | 1010.0 |
| 20260903055403 | 79 | 150 | 2.0 | 6.0 | 0.00 | 0.00 | 0.00 | 76 | 1010.1 |
| 20260903054524 | 80 | 142 | 1.0 | 4.0 | 0.00 | 0.00 | 0.00 | 75 | 1010.1 |
| 20260903053603 | 80 | 0 | 0.0 | 0.0 | 0.00 | 0.00 | 0.00 | 74 | 1010.3 |
| 20260903052704 | 80 | 0 | 0.0 | 0.0 | 0.00 | 0.00 | 0.00 | 73 | 1010.3 |
| 20260903051824 | 80 | 0 | 0.0 | 0.0 | 0.00 | 0.00 | 0.00 | 72 | 1010.2 |
| 20260903050903 | 81 | 140 | 1.0 | 4.0 | 0.00 | 0.00 | 0.00 | 72 | 1010.2 |
| 20260903050004 | 81 | 107 | 0.0 | 2.0 | 0.00 | 0.00 | 0.00 | 71 | 1010.2 |
| 20260903045403 | 81 | 131 | 1.0 | 6.0 | 0.00 | 0.00 | 0.00 | 71 | 1010.2 |
| 20260903044524 | 81 | 129 | 2.0 | 6.0 | 0.00 | 0.00 | 0.00 | 71 | 1010.1 |
| 20260903043603 | 82 | 132 | 1.0 | 6.0 | 0.00 | 0.00 | 0.00 | 70 | 1010.1 |
| 20260903042703 | 82 | 134 | 2.0 | 6.0 | 0.00 | 0.00 | 0.00 | 70 | 1010.1 |
| 20260903041804 | 82 | 142 | 1.0 | 4.0 | 0.00 | 0.00 | 0.00 | 69 | 1010.1 |
| 20260903040904 | 83 | 145 | 1.0 | 4.0 | 0.00 | 0.00 | 0.00 | 69 | 1010.0 |
| 20260903040003 | 83 | 132 | 1.0 | 4.0 | 0.00 | 0.00 | 0.00 | 68 | 1009.9 |
| 20260903035403 | 83 | 133 | 2.0 | 5.0 | 0.00 | 0.00 | 0.00 | 68 | 1010.0 |
| 20260903034504 | 84 | 141 | 0.0 | 2.0 | 0.00 | 0.00 | 0.00 | 68 | 1010.0 |
| 20260903033603 | 84 | 142 | 1.0 | 5.0 | 0.00 | 0.00 | 0.00 | 68 | 1010.0 |
| 20260903032703 | 84 | 147 | 2.0 | 6.0 | 0.00 | 0.00 | 0.00 | 67 | 1009.9 |
| 20260903031803 | 85 | 156 | 3.0 | 7.0 | 0.00 | 0.00 | 0.00 | 66 | 1009.9 |
| 20260903030903 | 85 | 157 | 2.0 | 6.0 | 0.00 | 0.00 | 0.00 | 65 | 1009.9 |
| 20260903030004 | 86 | 146 | 2.0 | 6.0 | 0.00 | 0.00 | 0.00 | 65 | 1009.8 |
| 20260903025403 | 86 | 148 | 2.0 | 7.0 | 0.00 | 0.00 | 0.00 | 64 | 1009.6 |
| 20260903024503 | 86 | 144 | 2.0 | 7.0 | 0.00 | 0.00 | 0.00 | 63 | 1009.5 |
| 20260903023603 | 86 | 143 | 3.0 | 9.0 | 0.00 | 0.00 | 0.00 | 63 | 1009.3 |
| 20260903022703 | 87 | 145 | 3.0 | 6.0 | 0.00 | 0.00 | 0.00 | 62 | 1009.2 |
| 20260903021803 | 87 | 143 | 3.0 | 8.0 | 0.00 | 0.00 | 0.00 | 61 | 1009.0 |
| 20260903020903 | 88 | 135 | 2.0 | 11.0 | 0.00 | 0.00 | 0.00 | 60 | 1008.9 |
| 20260903020024 | 88 | 136 | 2.0 | 7.0 | 0.00 | 0.00 | 0.00 | 59 | 1008.8 |
| 20260903015403 | 88 | 133 | 2.0 | 8.0 | 0.00 | 0.00 | 0.00 | 59 | 1008.7 |
| 20260903014503 | 89 | 122 | 2.0 | 6.0 | 0.00 | 0.00 | 0.00 | 58 | 1008.5 |
| 20260903013603 | 89 | 135 | 2.0 | 6.0 | 0.00 | 0.00 | 0.00 | 58 | 1008.4 |
| 20260903012703 | 89 | 134 | 2.0 | 6.0 | 0.00 | 0.00 | 0.00 | 57 | 1008.5 |
| 20260903011803 | 89 | 138 | 2.0 | 5.0 | 0.00 | 0.00 | 0.00 | 56 | 1008.4 |
| 20260903010903 | 90 | 139 | 3.0 | 8.0 | 0.00 | 0.00 | 0.00 | 55 | 1008.3 |
| 20260903010003 | 90 | 138 | 3.0 | 9.0 | 0.00 | 0.00 | 0.00 | 54 | 1008.2 |
| 20260903005403 | 91 | 137 | 3.0 | 12.0 | 0.00 | 0.00 | 0.00 | 53 | 1008.1 |
| 20260903004504 | 91 | 125 | 3.0 | 10.0 | 0.00 | 0.00 | 0.00 | 51 | 1008.1 |
| 20260903003604 | 92 | 125 | 3.0 | 7.0 | 0.00 | 0.00 | 0.00 | 49 | 1008.2 |
| 20260903002704 | 93 | 119 | 2.0 | 6.0 | 0.00 | 0.00 | 0.00 | 47 | 1008.1 |
| 20260903001804 | 94 | 102 | 3.0 | 8.0 | 0.00 | 0.00 | 0.00 | 46 | 1008.0 |
| 20260903000904 | 94 | 100 | 3.0 | 6.0 | 0.00 | 0.00 | 0.00 | 45 | 1007.9 |
| 20260903000004 | 95 | 125 | 2.0 | 8.0 | 0.00 | 0.00 | 0.00 | 46 | 1008.0 |
| 20260902235404 | 95 | 121 | 3.0 | 8.0 | 0.00 | 0.00 | 0.00 | 45 | 1007.9 |
| 20260902234504 | 97 | 121 | 4.0 | 8.0 | 0.00 | 0.00 | 0.00 | 44 | 1007.9 |
| 20260902233604 | 99 | 103 | 3.0 | 9.0 | 0.00 | 0.00 | 0.00 | 41 | 1007.8 |
| 20260902232704 | 100 | 60 | 4.0 | 10.0 | 0.00 | 0.00 | 0.00 | 38 | 1007.7 |
| 20260902231805 | 101 | 61 | 2.0 | 8.0 | 0.00 | 0.00 | 0.00 | 37 | 1007.6 |
| 20260902230925 | 101 | 58 | 3.0 | 9.0 | 0.00 | 0.00 | 0.00 | 36 | 1007.7 |
| 20260902230004 | 101 | 49 | 3.0 | 9.0 | 0.00 | 0.00 | 0.00 | 35 | 1007.8 |
| 20260902225404 | 101 | 58 | 5.0 | 12.0 | 0.00 | 0.00 | 0.00 | 36 | 1007.7 |
| 20260902224504 | 101 | 51 | 5.0 | 14.0 | 0.00 | 0.00 | 0.00 | 34 | 1007.6 |
| 20260902223625 | 101 | 8 | 5.0 | 11.0 | 0.00 | 0.00 | 0.00 | 36 | 1007.7 |
| 20260902222705 | 101 | 37 | 5.0 | 11.0 | 0.00 | 0.00 | 0.00 | 36 | 1007.7 |
| 20260902221805 | 101 | 27 | 4.0 | 12.0 | 0.00 | 0.00 | 0.00 | 36 | 1007.8 |
| 20260902220925 | 101 | 33 | 5.0 | 16.0 | 0.00 | 0.00 | 0.00 | 36 | 1007.8 |
| 20260902220004 | 102 | 22 | 5.0 | 16.0 | 0.00 | 0.00 | 0.00 | 36 | 1007.8 |
| 20260902215405 | 102 | 55 | 4.0 | 12.0 | 0.00 | 0.00 | 0.00 | 36 | 1008.0 |
| 20260902214505 | 102 | 50 | 5.0 | 13.0 | 0.00 | 0.00 | 0.00 | 36 | 1008.0 |
| 20260902213604 | 102 | 39 | 5.0 | 13.0 | 0.00 | 0.00 | 0.00 | 36 | 1008.0 |
| 20260902212704 | 102 | 23 | 6.0 | 12.0 | 0.00 | 0.00 | 0.00 | 36 | 1008.2 |
| 20260902211804 | 102 | 49 | 5.0 | 12.0 | 0.00 | 0.00 | 0.00 | 36 | 1008.3 |
| 20260902210904 | 102 | 45 | 4.0 | 10.0 | 0.00 | 0.00 | 0.00 | 37 | 1008.2 |
| 20260902210004 | 102 | 40 | 5.0 | 12.0 | 0.00 | 0.00 | 0.00 | 36 | 1008.4 |
| 20260902205404 | 102 | 47 | 6.0 | 13.0 | 0.00 | 0.00 | 0.00 | 35 | 1008.5 |
| 20260902204505 | 103 | 52 | 3.0 | 10.0 | 0.00 | 0.00 | 0.00 | 35 | 1008.5 |
| 20260902203604 | 102 | 37 | 4.0 | 11.0 | 0.00 | 0.00 | 0.00 | 38 | 1008.6 |
| 20260902202704 | 102 | 33 | 6.0 | 14.0 | 0.00 | 0.00 | 0.00 | 38 | 1008.7 |
| 20260902201804 | 102 | 16 | 5.0 | 11.0 | 0.00 | 0.00 | 0.00 | 38 | 1008.9 |
| 20260902200904 | 101 | 13 | 5.0 | 11.0 | 0.00 | 0.00 | 0.00 | 38 | 1009.1 |
| 20260902200025 | 101 | 15 | 5.0 | 11.0 | 0.00 | 0.00 | 0.00 | 38 | 1009.1 |
| 20260902195404 | 101 | 25 | 5.0 | 11.0 | 0.00 | 0.00 | 0.00 | 39 | 1009.2 |
| 20260902194504 | 101 | 24 | 5.0 | 11.0 | 0.00 | 0.00 | 0.00 | 38 | 1009.4 |
| 20260902193604 | 101 | 18 | 6.0 | 13.0 | 0.00 | 0.00 | 0.00 | 38 | 1009.5 |
| 20260902192704 | 101 | 19 | 5.0 | 11.0 | 0.00 | 0.00 | 0.00 | 39 | 1009.7 |
| 20260902191805 | 101 | 51 | 4.0 | 13.0 | 0.00 | 0.00 | 0.00 | 39 | 1009.8 |
| 20260902190904 | 100 | 42 | 5.0 | 10.0 | 0.00 | 0.00 | 0.00 | 40 | 1010.0 |